World > North America > United States > Iowa > Julien

Hourly Julien, IA Regional Weather

Feedback E-mail the Weather

Quick WX

Julien, IA Weather Maps

°F °C°F °C
Julien Weather Map
UTC Time: 8/14/2022, 09:40
Your Time:

Julien, IA Regional Weather

Expires:202208141000;;074248
ASUS43 KDMX 140906
RWRIA 

WEATHER ROUNDUP FOR IOWA
NATIONAL WEATHER SERVICE DES MOINES IA
400 AM CDT SUN AUG 14 2022

NOTE: "FAIR" INDICATES FEW OR NO CLOUDS BELOW 12,000 FEET WITH NO
SIGNIFICANT WEATHER AND/OR OBSTRUCTIONS TO VISIBILITY.

* - THESE STATIONS ARE NOT NWS STATIONS...THUS NOT UNDER NWS
QUALITY CONTROL.  THEY ALSO DO NOT REPORT WEATHER SUCH 
AS PRECIPITATION OR FOG.  


IAZ007>011-017>019-026>030-037>042-050>054-066-141000-
   NORTHEAST IOWA
  
CITY           SKY/WX    TMP DP  RH WIND       PRES   REMARKS
CEDAR RAPIDS   CLOUDY    67  63  87 N10       29.94R                  
CHARLES CITY * CLOUDY    63  63 100 N7        30.00R                  
CLINTON *      CLOUDY    69 N/A N/A N12       29.91R                  
DECORAH *      CLOUDY    63  63 100 N8        29.97R                  
DUBUQUE        CLOUDY    67  66  97 N12       29.93S                  
OELWEIN *      CLOUDY    64  63  94 N7        29.97S                  
WATERLOO       CLOUDY    66  61  84 NW9       29.96S                  
$$
 

SKY/WX - Weather  TMP - Temperature  DP - Dew Point  RH - Humidity
WIND - Wind Direction/Speed PRES - Barometric Pressure VSB - Visibility
WCI - Wind Chill Index E13G22 Wind - East Wind 13 mph/Gusts of 22 mph

Trending Headlines

Julien Radar Loop



Julien Quick Facts


National Two Day Weather Forecast


E-mail the Julien Weather Forecast

Voice your opinion or tell us about page issues...